Change the Weather History Date:

Friday, October 4, 2013

  Actual Average Record
Temperature  
Mean Temperature 70 °F 61 °F  
Max Temperature 82 °F 73 °F 88 °F (1959)
Min Temperature 58 °F 49 °F 28 °F (1974)
Degree Days  
Heating Degree Days 0 5  
Month to date heating degree days 0 19  
Cooling Degree Days 5 1  
Month to date cooling degree days 18 6  
Year to date cooling degree days 1059 1173  
Growing Degree Days 20 (Base 50)    
Moisture  
Dew Point 61 °F    
Average Humidity 74    
Maximum Humidity 97    
Minimum Humidity 51    
Precipitation  
Precipitation 0.00 in 0.09 in 1.08 in (1995)
Month to date precipitation 0.99 0.38  
Year to date precipitation 44.64 36.43  
Sea Level Pressure  
Sea Level Pressure 30.12 in    
Wind  
Wind Speed 2 mph (SSW)    
Max Wind Speed 10 mph    
Max Gust Speed 15 mph    
Visibility 5 miles    
Events Fog    
T = Trace of Precipitation, MM = Missing Value Source: NWS Daily Summary

Daily Weather History Graph

Daily Weather History Graph

Search for Another Location

Airport or City:

Trip Planner

Search our weather history database for the weather conditions in past years. The results will help you decide how hot, cold, wet, or windy it might be!

Date:

Astronomy

Oct. 04, 2013 Rise Set
Actual Time 7:34 AM EDT 7:14 PM EDT
Civil Twilight 7:08 AM EDT 7:40 PM EDT
Nautical Twilight 6:38 AM EDT 8:10 PM EDT
Astronomical Twilight 6:08 AM EDT 8:40 PM EDT
Moon 7:08 AM EDT 6:57 PM EDT
Length of Visible Light 12h 32m
Length of Day
11h 40m
Waning Crescent, 0% of the Moon is Illuminated
Oct 4
Waning Crescent
Oct 4
New
Oct 11
First Quarter
Oct 18
Full
Oct 26
Last Quarter

Hourly Weather History & Observations

Time (EDT) Temp. Heat Index Dew Point Humidity Pressure Visibility Wind Dir Wind Speed Gust Speed Precip Events Conditions
12:49 AM 64.4 °F - 62.6 °F 94% 30.11 in 1.0 mi Calm Calm - N/A   Mist
12:53 AM 63.0 °F - 62.1 °F 97% 30.08 in 0.8 mi Calm Calm - N/A   Mist
1:07 AM 62.6 °F - 60.8 °F 94% 30.12 in 1.2 mi Calm Calm - N/A   Overcast
1:27 AM 62.6 °F - 60.8 °F 94% 30.11 in 2.5 mi Calm Calm - N/A   Mostly Cloudy
1:36 AM 62.6 °F - 60.8 °F 94% 30.12 in 1.0 mi Calm Calm - N/A   Mist
1:45 AM 62.6 °F - 60.8 °F 94% 30.12 in 0.5 mi Calm Calm - N/A Fog Fog
1:53 AM 63.0 °F - 61.0 °F 93% 30.09 in 0.8 mi Calm Calm - N/A   Mist
2:00 AM 62.6 °F - 60.8 °F 94% 30.12 in 2.0 mi Calm Calm - N/A   Mostly Cloudy
2:07 AM 62.6 °F - 60.8 °F 94% 30.12 in 1.5 mi Calm Calm - N/A   Mostly Cloudy
2:26 AM 62.6 °F - 60.8 °F 94% 30.12 in 0.2 mi Calm Calm - N/A Fog Fog
2:53 AM 62.1 °F - 61.0 °F 96% 30.09 in 0.2 mi Calm Calm - N/A Fog Fog
3:45 AM 60.8 °F - 60.8 °F 100% 30.11 in 2.0 mi Calm Calm - N/A   Mostly Cloudy
3:53 AM 62.1 °F - 60.1 °F 93% 30.09 in 2.5 mi Calm Calm - N/A   Mostly Cloudy
3:58 AM 62.6 °F - 60.8 °F 94% 30.11 in 0.8 mi Calm Calm - N/A   Mist
4:10 AM 62.6 °F - 60.8 °F 94% 30.11 in 1.2 mi Calm Calm - N/A   Scattered Clouds
4:17 AM 60.8 °F - 59.0 °F 94% 30.11 in 3.0 mi Calm Calm - N/A   Mostly Cloudy
4:39 AM 60.8 °F - 59.0 °F 94% 30.11 in 8.0 mi Calm Calm - N/A   Scattered Clouds
4:53 AM 61.0 °F - 59.0 °F 93% 30.09 in 7.0 mi Calm Calm - N/A   Clear
5:00 AM 60.8 °F - 59.0 °F 94% 30.12 in 6.0 mi Calm Calm - N/A   Scattered Clouds
5:17 AM 60.8 °F - 59.0 °F 94% 30.12 in 1.5 mi Calm Calm - N/A   Scattered Clouds
5:36 AM 59.0 °F - 57.2 °F 94% 30.13 in 1.2 mi Calm Calm - N/A   Mostly Cloudy
5:53 AM 60.1 °F - 57.9 °F 93% 30.11 in 0.5 mi Calm Calm - N/A Fog Fog
6:05 AM 60.8 °F - 57.2 °F 88% 30.13 in 2.0 mi Calm Calm - N/A   Overcast
6:19 AM 60.8 °F - 57.2 °F 88% 30.13 in 4.0 mi Calm Calm - N/A   Mostly Cloudy
6:37 AM 60.8 °F - 57.2 °F 88% 30.13 in 1.5 mi Calm Calm - N/A   Mostly Cloudy
6:46 AM 59.0 °F - 57.2 °F 94% 30.14 in 0.5 mi Calm Calm - N/A Fog Fog
6:53 AM 59.0 °F - 57.0 °F 93% 30.12 in 0.5 mi Calm Calm - N/A Fog Fog
7:53 AM 59.0 °F - 57.0 °F 93% 30.14 in 0.2 mi Calm Calm - 0.01 in Fog Fog
8:37 AM 60.8 °F - 59.0 °F 94% 30.18 in 2.5 mi Calm Calm - N/A   Mostly Cloudy
8:44 AM 60.8 °F - 60.8 °F 100% 30.18 in 6.0 mi Calm Calm - N/A   Mostly Cloudy
8:53 AM 62.1 °F - 61.0 °F 96% 30.16 in 4.0 mi Calm Calm - N/A   Scattered Clouds
9:53 AM 66.0 °F - 63.0 °F 90% 30.16 in 10.0 mi SE 3.5 mph - N/A   Clear
10:53 AM 73.0 °F - 64.9 °F 76% 30.16 in 10.0 mi SSE 3.5 mph - N/A   Scattered Clouds
11:53 AM 75.9 °F - 64.9 °F 69% 30.14 in 10.0 mi Calm Calm - N/A   Clear
12:53 PM 78.1 °F - 64.0 °F 62% 30.14 in 10.0 mi SW 8.1 mph - N/A   Scattered Clouds
1:53 PM 79.0 °F - 63.0 °F 58% 30.12 in 10.0 mi Variable 5.8 mph - N/A   Scattered Clouds
2:53 PM 81.0 °F 82.5 °F 64.0 °F 56% 30.09 in 10.0 mi West 4.6 mph - N/A   Mostly Cloudy
3:53 PM 80.1 °F 81.5 °F 63.0 °F 56% 30.09 in 10.0 mi SW 4.6 mph - N/A   Partly Cloudy
4:53 PM 82.0 °F 83.0 °F 62.1 °F 51% 30.08 in 10.0 mi South 4.6 mph - N/A   Clear
5:53 PM 81.0 °F 81.9 °F 62.1 °F 52% 30.08 in 10.0 mi Variable 4.6 mph - N/A   Clear
6:53 PM 79.0 °F - 63.0 °F 58% 30.08 in 10.0 mi Calm Calm - N/A   Clear
7:53 PM 73.9 °F - 64.0 °F 71% 30.10 in 10.0 mi Calm Calm - N/A   Clear
8:53 PM 71.1 °F - 64.9 °F 81% 30.10 in 10.0 mi Calm Calm - N/A   Clear
9:53 PM 70.0 °F - 64.9 °F 84% 30.11 in 10.0 mi Calm Calm - N/A   Clear
10:53 PM 69.1 °F - 64.9 °F 87% 30.11 in 8.0 mi Calm Calm - N/A   Partly Cloudy
11:53 PM 68.0 °F - 64.0 °F 87% 30.10 in 7.0 mi Calm Calm - N/A   Clear